Thermal, CA

10:32 AM PDT on March 24, 2017 (GMT -0700)
Desert Resorts Regional

Weather History for KTRM - February, 2012

Change the Weather History Date:

Wednesday, February 1, 2012

  Actual Average Record
Temperature  
Mean Temperature 56 °F 56 °F  
Max Temperature 74 °F 73 °F 89 °F (1954)
Min Temperature 37 °F 39 °F 21 °F (1985)
Degree Days  
Heating Degree Days 9 9  
Month to date heating degree days 9 9  
Since 1 July heating degree days 933 869  
Cooling Degree Days 0 0  
Month to date cooling degree days 0 0  
Year to date cooling degree days 0 2  
Growing Degree Days 5 (Base 50)    
Moisture  
Dew Point 27 °F    
Average Humidity 39    
Maximum Humidity 64    
Minimum Humidity 14    
Precipitation  
Precipitation 0.00 in 0.02 in 0.09 in (1996)
Month to date precipitation 0.00 0.02  
Year to date precipitation T 0.69  
Since 1 July precipitation 0.99  
Snow  
Snow 0.00 in - - ()
Month to date snowfall 0.0  
Year to date snowfall 0.0  
Snow Depth 0.00 in    
Sea Level Pressure  
Sea Level Pressure 30.03 in    
Wind  
Wind Speed 5 mph (NNE)    
Max Wind Speed 10 mph    
Max Gust Speed 14 mph    
Visibility 10 miles    
Events      
T = Trace of Precipitation, MM = Missing Value Source: NWS Daily Summary

Daily Weather History Graph

Daily Weather History Graph

Search for Another Location

Airport or City:

Trip Planner

Search our weather history database for the weather conditions in past years. The results will help you decide how hot, cold, wet, or windy it might be!

Date:

Astronomy

Feb. 01, 2012 Rise Set
Actual Time 6:41 AM PST 5:15 PM PST
Civil Twilight 6:15 AM PST 5:41 PM PST
Nautical Twilight 5:45 AM PST 6:11 PM PST
Astronomical Twilight 5:16 AM PST 6:40 PM PST
Moon 11:51 AM PST (2/1) 1:27 AM PST (2/1)
Length of Visible Light 11h 26m
Length of Day
10h 34m
Waxing Gibbous, 65% of the Moon is Illuminated
Feb 1
Waxing Gibbous
Feb 7
Full
Feb 14
Last Quarter
Feb 21
New
Feb 29
First Quarter

Hourly Weather History & Observations

Time (PST) Temp. Windchill Dew Point Humidity Pressure Visibility Wind Dir Wind Speed Gust Speed Precip Events Conditions
12:52 AM 39.9 °F 36.7 °F 28.0 °F 63% 30.10 in 10.0 mi North 4.6 mph - N/A   Clear
1:52 AM 37.0 °F 34.5 °F 26.1 °F 65% 30.09 in 10.0 mi North 3.5 mph - N/A   Clear
2:52 AM 44.1 °F 41.5 °F 28.9 °F 55% 30.09 in 10.0 mi North 4.6 mph - N/A   Clear
3:52 AM 50.0 °F - 25.0 °F 38% 30.08 in 10.0 mi North 8.1 mph - N/A   Clear
4:52 AM 39.9 °F 37.8 °F 28.0 °F 63% 30.07 in 10.0 mi West 3.5 mph - N/A   Clear
5:52 AM 45.0 °F 40.6 °F 24.1 °F 44% 30.09 in 10.0 mi North 8.1 mph - N/A   Clear
6:52 AM 39.9 °F 35.1 °F 26.1 °F 58% 30.10 in 10.0 mi West 6.9 mph - N/A   Clear
7:52 AM 46.0 °F - 30.0 °F 54% 30.10 in 10.0 mi Calm Calm - N/A   Clear
8:52 AM 55.9 °F - 28.0 °F 34% 30.12 in 10.0 mi NW 3.5 mph - N/A   Clear
9:52 AM 59.0 °F - 34.0 °F 39% 30.12 in 10.0 mi ESE 5.8 mph - N/A   Clear
10:52 AM 64.0 °F - 33.1 °F 31% 30.11 in 10.0 mi Variable 3.5 mph - N/A   Clear
11:52 AM 70.0 °F - 25.0 °F 18% 30.09 in 10.0 mi Calm Calm - N/A   Clear
12:52 PM 73.0 °F - 21.0 °F 14% 30.02 in 10.0 mi SSE 4.6 mph - N/A   Clear
1:52 PM 73.9 °F - 27.0 °F 18% 29.98 in 10.0 mi SSE 8.1 mph - N/A   Clear
2:52 PM 72.0 °F - 19.9 °F 14% 29.96 in 10.0 mi SE 4.6 mph - N/A   Clear
3:52 PM 72.0 °F - 19.9 °F 14% 29.94 in 10.0 mi SSE 5.8 mph - N/A   Clear
4:52 PM 66.0 °F - 23.0 °F 20% 29.93 in 10.0 mi ESE 5.8 mph - N/A   Clear
5:52 PM 57.0 °F - 27.0 °F 32% 29.93 in 10.0 mi West 8.1 mph - N/A   Clear
6:52 PM 54.0 °F - 28.0 °F 37% 29.94 in 10.0 mi Calm Calm - N/A   Clear
7:52 PM 55.0 °F - 27.0 °F 34% 29.96 in 10.0 mi NE 4.6 mph - N/A   Clear
8:52 PM 48.9 °F - 28.0 °F 44% 29.97 in 10.0 mi Calm Calm - N/A   Clear
9:52 PM 48.9 °F - 27.0 °F 43% 29.98 in 10.0 mi Calm Calm - N/A   Clear
10:52 PM 51.1 °F - 30.9 °F 46% 29.99 in 10.0 mi North 4.6 mph - N/A   Clear
11:52 PM 45.0 °F 42.6 °F 30.9 °F 58% 29.99 in 10.0 mi NW 4.6 mph - N/A   Clear